Directory Listing
Index of /dewikisource/20260101/

Index of /dewikisource/20260101/


../
dewikisource-20260101-all-titles-in-ns0.gz         02-Jan-2026 04:38      2M
dewikisource-20260101-all-titles.gz                02-Jan-2026 04:38      3M
dewikisource-20260101-babel.sql.gz                 02-Jan-2026 02:43    2330
dewikisource-20260101-category.sql.gz              02-Jan-2026 02:43    113K
dewikisource-20260101-categorylinks.sql.gz         02-Jan-2026 02:42     22M
dewikisource-20260101-change_tag.sql.gz            02-Jan-2026 02:43      4M
dewikisource-20260101-change_tag_def.sql.gz        02-Jan-2026 02:43    1535
dewikisource-20260101-externallinks.sql.gz         02-Jan-2026 02:43     15M
dewikisource-20260101-geo_tags.sql.gz              02-Jan-2026 02:43     886
dewikisource-20260101-image.sql.gz                 02-Jan-2026 02:42    353K
dewikisource-20260101-imagelinks.sql.gz            02-Jan-2026 02:42      5M
dewikisource-20260101-iwlinks.sql.gz               02-Jan-2026 02:43      5M
dewikisource-20260101-langlinks.sql.gz             02-Jan-2026 02:43    359K
dewikisource-20260101-linktarget.sql.gz            02-Jan-2026 02:42      7M
dewikisource-20260101-md5sums.json                 02-Jan-2026 08:41    3144
dewikisource-20260101-md5sums.txt                  02-Jan-2026 08:41    2934
dewikisource-20260101-page.sql.gz                  02-Jan-2026 02:43     18M
dewikisource-20260101-page_props.sql.gz            02-Jan-2026 02:43      5M
dewikisource-20260101-page_restrictions.sql.gz     02-Jan-2026 02:43      4M
dewikisource-20260101-pagelinks.sql.gz             02-Jan-2026 02:42     17M
dewikisource-20260101-pages-articles-multistrea..> 02-Jan-2026 04:21      4M
dewikisource-20260101-pages-articles-multistrea..> 02-Jan-2026 04:15       0
dewikisource-20260101-pages-articles-multistrea..> 02-Jan-2026 04:21    560M
dewikisource-20260101-pages-articles-multistrea..> 02-Jan-2026 04:16     13M
dewikisource-20260101-pages-articles.xml.bz2       02-Jan-2026 03:32    531M
dewikisource-20260101-pages-logging.xml.gz         02-Jan-2026 04:40     25M
dewikisource-20260101-pages-logging.xml.gz.inprog  02-Jan-2026 04:38     529
dewikisource-20260101-pages-meta-current.xml.bz2   02-Jan-2026 04:37    564M
dewikisource-20260101-pages-meta-current.xml.bz..> 02-Jan-2026 04:29     49M
dewikisource-20260101-pages-meta-history.xml.7z    02-Jan-2026 08:41      2G
dewikisource-20260101-pages-meta-history.xml.bz2   02-Jan-2026 08:10      7G
dewikisource-20260101-protected_titles.sql.gz      02-Jan-2026 02:43    1534
dewikisource-20260101-redirect.sql.gz              02-Jan-2026 02:43    145K
dewikisource-20260101-runsettings.txt              02-Jan-2026 01:26      28
dewikisource-20260101-sha1sums.json                02-Jan-2026 08:41    3449
dewikisource-20260101-sha1sums.txt                 02-Jan-2026 08:41    3238
dewikisource-20260101-site_stats.sql.gz            02-Jan-2026 02:42     850
dewikisource-20260101-siteinfo-namespaces.json.gz  02-Jan-2026 04:38    6614
dewikisource-20260101-siteinfo2-namespacesv2.js..> 02-Jan-2026 04:38    6872
dewikisource-20260101-sites.sql.gz                 02-Jan-2026 02:43     23K
dewikisource-20260101-stub-articles.xml.gz         02-Jan-2026 01:59     52M
dewikisource-20260101-stub-meta-current.xml.gz     02-Jan-2026 01:59     54M
dewikisource-20260101-stub-meta-history.xml.gz     02-Jan-2026 01:59    313M
dewikisource-20260101-templatelinks.sql.gz         02-Jan-2026 02:42     18M
dewikisource-20260101-user_former_groups.sql.gz    02-Jan-2026 02:43     886
dewikisource-20260101-user_groups.sql.gz           02-Jan-2026 02:43    1091
dewikisource-20260101-wbc_entity_usage.sql.gz      02-Jan-2026 02:43     11M
dumpruninfo.json                                   02-Jan-2026 08:41    2562
dumpruninfo.txt                                    02-Jan-2026 08:41    2202
dumpspecialfiles.json                              02-Jan-2026 08:41     133
dumpstatus.json                                    02-Jan-2026 08:41     12K
md5sums-dewikisource-20260101-all-titles-in-ns0..> 02-Jan-2026 04:38      77
md5sums-dewikisource-20260101-all-titles.gz.txt    02-Jan-2026 04:38      70
md5sums-dewikisource-20260101-babel.sql.gz.txt     02-Jan-2026 02:43      69
md5sums-dewikisource-20260101-category.sql.gz.txt  02-Jan-2026 02:43      72
md5sums-dewikisource-20260101-categorylinks.sql..> 02-Jan-2026 02:42      77
md5sums-dewikisource-20260101-change_tag.sql.gz..> 02-Jan-2026 02:43      74
md5sums-dewikisource-20260101-change_tag_def.sq..> 02-Jan-2026 02:43      78
md5sums-dewikisource-20260101-externallinks.sql..> 02-Jan-2026 02:43      77
md5sums-dewikisource-20260101-geo_tags.sql.gz.txt  02-Jan-2026 02:43      72
md5sums-dewikisource-20260101-image.sql.gz.txt     02-Jan-2026 02:42      69
md5sums-dewikisource-20260101-imagelinks.sql.gz..> 02-Jan-2026 02:42      74
md5sums-dewikisource-20260101-iwlinks.sql.gz.txt   02-Jan-2026 02:43      71
md5sums-dewikisource-20260101-langlinks.sql.gz.txt 02-Jan-2026 02:43      73
md5sums-dewikisource-20260101-linktarget.sql.gz..> 02-Jan-2026 02:42      74
md5sums-dewikisource-20260101-page.sql.gz.txt      02-Jan-2026 02:43      68
md5sums-dewikisource-20260101-page_props.sql.gz..> 02-Jan-2026 02:43      74
md5sums-dewikisource-20260101-page_restrictions..> 02-Jan-2026 02:43      81
md5sums-dewikisource-20260101-pagelinks.sql.gz.txt 02-Jan-2026 02:42      73
md5sums-dewikisource-20260101-pages-articles-mu..> 02-Jan-2026 04:21      97
md5sums-dewikisource-20260101-pages-articles-mu..> 02-Jan-2026 04:21      91
md5sums-dewikisource-20260101-pages-articles.xm..> 02-Jan-2026 03:32      79
md5sums-dewikisource-20260101-pages-logging.xml..> 02-Jan-2026 04:40      77
md5sums-dewikisource-20260101-pages-meta-curren..> 02-Jan-2026 04:37      83
md5sums-dewikisource-20260101-pages-meta-histor..> 02-Jan-2026 08:41      82
md5sums-dewikisource-20260101-pages-meta-histor..> 02-Jan-2026 08:11      83
md5sums-dewikisource-20260101-protected_titles...> 02-Jan-2026 02:43      80
md5sums-dewikisource-20260101-redirect.sql.gz.txt  02-Jan-2026 02:43      72
md5sums-dewikisource-20260101-site_stats.sql.gz..> 02-Jan-2026 02:42      74
md5sums-dewikisource-20260101-siteinfo-namespac..> 02-Jan-2026 04:38      84
md5sums-dewikisource-20260101-siteinfo2-namespa..> 02-Jan-2026 04:38      87
md5sums-dewikisource-20260101-sites.sql.gz.txt     02-Jan-2026 02:43      69
md5sums-dewikisource-20260101-stub-articles.xml..> 02-Jan-2026 01:59      77
md5sums-dewikisource-20260101-stub-meta-current..> 02-Jan-2026 01:59      81
md5sums-dewikisource-20260101-stub-meta-history..> 02-Jan-2026 01:59      81
md5sums-dewikisource-20260101-templatelinks.sql..> 02-Jan-2026 02:42      77
md5sums-dewikisource-20260101-user_former_group..> 02-Jan-2026 02:43      82
md5sums-dewikisource-20260101-user_groups.sql.g..> 02-Jan-2026 02:43      75
md5sums-dewikisource-20260101-wbc_entity_usage...> 02-Jan-2026 02:43      80
report.json                                        02-Jan-2026 08:41    6488
sha1sums-dewikisource-20260101-all-titles-in-ns..> 02-Jan-2026 04:38      85
sha1sums-dewikisource-20260101-all-titles.gz.txt   02-Jan-2026 04:38      78
sha1sums-dewikisource-20260101-babel.sql.gz.txt    02-Jan-2026 02:43      77
sha1sums-dewikisource-20260101-category.sql.gz.txt 02-Jan-2026 02:43      80
sha1sums-dewikisource-20260101-categorylinks.sq..> 02-Jan-2026 02:42      85
sha1sums-dewikisource-20260101-change_tag.sql.g..> 02-Jan-2026 02:43      82
sha1sums-dewikisource-20260101-change_tag_def.s..> 02-Jan-2026 02:43      86
sha1sums-dewikisource-20260101-externallinks.sq..> 02-Jan-2026 02:43      85
sha1sums-dewikisource-20260101-geo_tags.sql.gz.txt 02-Jan-2026 02:43      80
sha1sums-dewikisource-20260101-image.sql.gz.txt    02-Jan-2026 02:42      77
sha1sums-dewikisource-20260101-imagelinks.sql.g..> 02-Jan-2026 02:42      82
sha1sums-dewikisource-20260101-iwlinks.sql.gz.txt  02-Jan-2026 02:43      79
sha1sums-dewikisource-20260101-langlinks.sql.gz..> 02-Jan-2026 02:43      81
sha1sums-dewikisource-20260101-linktarget.sql.g..> 02-Jan-2026 02:42      82
sha1sums-dewikisource-20260101-page.sql.gz.txt     02-Jan-2026 02:43      76
sha1sums-dewikisource-20260101-page_props.sql.g..> 02-Jan-2026 02:43      82
sha1sums-dewikisource-20260101-page_restriction..> 02-Jan-2026 02:43      89
sha1sums-dewikisource-20260101-pagelinks.sql.gz..> 02-Jan-2026 02:42      81
sha1sums-dewikisource-20260101-pages-articles-m..> 02-Jan-2026 04:21     105
sha1sums-dewikisource-20260101-pages-articles-m..> 02-Jan-2026 04:21      99
sha1sums-dewikisource-20260101-pages-articles.x..> 02-Jan-2026 03:32      87
sha1sums-dewikisource-20260101-pages-logging.xm..> 02-Jan-2026 04:40      85
sha1sums-dewikisource-20260101-pages-meta-curre..> 02-Jan-2026 04:37      91
sha1sums-dewikisource-20260101-pages-meta-histo..> 02-Jan-2026 08:41      90
sha1sums-dewikisource-20260101-pages-meta-histo..> 02-Jan-2026 08:12      91
sha1sums-dewikisource-20260101-protected_titles..> 02-Jan-2026 02:43      88
sha1sums-dewikisource-20260101-redirect.sql.gz.txt 02-Jan-2026 02:43      80
sha1sums-dewikisource-20260101-site_stats.sql.g..> 02-Jan-2026 02:42      82
sha1sums-dewikisource-20260101-siteinfo-namespa..> 02-Jan-2026 04:38      92
sha1sums-dewikisource-20260101-siteinfo2-namesp..> 02-Jan-2026 04:38      95
sha1sums-dewikisource-20260101-sites.sql.gz.txt    02-Jan-2026 02:43      77
sha1sums-dewikisource-20260101-stub-articles.xm..> 02-Jan-2026 01:59      85
sha1sums-dewikisource-20260101-stub-meta-curren..> 02-Jan-2026 01:59      89
sha1sums-dewikisource-20260101-stub-meta-histor..> 02-Jan-2026 01:59      89
sha1sums-dewikisource-20260101-templatelinks.sq..> 02-Jan-2026 02:42      85
sha1sums-dewikisource-20260101-user_former_grou..> 02-Jan-2026 02:43      90
sha1sums-dewikisource-20260101-user_groups.sql...> 02-Jan-2026 02:43      83
sha1sums-dewikisource-20260101-wbc_entity_usage..> 02-Jan-2026 02:43      88
status.html                                        02-Jan-2026 08:41     119
tableinfo.json                                     01-Jan-2026 09:14    1524